Date String (YYYY-MM-DD hh:mm:ss) UTC,Instrument flags,Ambient pressure (hPa),Sample flow (lpm),Bypass flow (lpm),Sample temperature (°C),Ambient temperature (°C),ASC tube jacket temperature (°C),LED temperature (°C),Box temperature (°C),Sample RH (%),Span deviation,Mass concentration (μg/m³),Mass concentration (μg/m³),Mass concentration (μg/m³)
DateTimeUTC,F1_M11,P_M11,Q1_M11,Q2_M11,T1_M11,T2_M11,T3_M11,T4_M11,T5_M11,U1_M11,ZSPAN_M11,X0_M11,X2_M11,X1_M11
2023-05-03 20:00:00,,0826.5,5.00,0.00,30.1,28.9,00.0,38.4,31.7,10.4,0000.0,0014.30,0005.30,0003.57
2023-05-03 20:01:00,,0826.5,5.00,0.00,30.2,28.9,00.0,38.4,31.8,10.2,0000.0,0014.20,0005.29,0003.57
2023-05-03 20:02:00,,0826.5,4.99,0.00,30.2,29.0,00.0,38.4,31.8,10.5,0000.0,0014.12,0005.27,0003.56
2023-05-03 20:03:00,,0826.4,4.99,0.00,30.2,29.1,00.0,38.4,31.8,10.4,0000.0,0013.69,0005.29,0003.56
2023-05-03 20:04:00,,0826.4,5.00,0.00,30.3,29.1,00.0,38.5,31.9,10.2,0000.0,0012.95,0005.28,0003.58
2023-05-03 20:05:00,,0826.4,5.00,0.00,30.3,29.2,00.0,38.5,31.9,10.3,0000.0,0012.94,0005.33,0003.58
2023-05-03 20:06:00,,0826.4,5.00,0.00,30.3,29.2,00.0,38.5,31.9,10.7,0000.0,0012.84,0005.28,0003.59
2023-05-03 20:07:00,,0826.4,5.01,0.00,30.4,29.3,00.0,38.5,32.0,10.8,0000.0,0013.27,0005.27,0003.62
2023-05-03 20:08:00,,0826.4,5.01,0.00,30.4,29.2,00.0,38.6,32.0,10.7,0000.0,0013.53,0005.35,0003.66
2023-05-03 20:09:00,,0826.4,4.98,0.00,30.4,27.8,00.0,38.5,31.9,10.5,0000.0,0013.53,0005.41,0003.68
2023-05-03 20:10:00,,0826.4,5.00,0.00,30.3,26.0,00.0,38.4,31.5,10.4,0000.0,0014.26,0005.48,0003.71
2023-05-03 20:11:00,,0826.4,5.01,0.00,30.2,25.7,00.0,38.3,31.4,10.4,0000.0,0014.32,0005.48,0003.74
2023-05-03 20:12:00,,0826.4,5.02,0.00,30.1,26.0,00.0,38.4,31.2,10.4,0000.0,0014.41,0005.50,0003.76
2023-05-03 20:13:00,,0826.4,4.99,0.00,30.0,26.4,00.0,38.4,31.2,10.5,0000.0,0015.25,0005.53,0003.78
2023-05-03 20:14:00,,0826.4,5.00,0.00,30.0,26.8,00.0,38.4,31.3,10.5,0000.0,0015.90,0005.49,0003.79
2023-05-03 20:15:00,,0826.4,5.00,0.00,30.0,27.2,00.0,38.4,31.3,10.6,0000.0,0016.42,0005.55,0003.79
2023-05-03 20:16:00,,0826.4,4.99,0.00,30.0,27.5,00.0,38.4,31.4,10.6,0000.0,0016.92,0005.54,0003.80
2023-05-03 20:17:00,,0826.3,5.00,0.00,30.0,27.8,00.0,38.3,31.5,10.6,0000.0,0017.17,0005.47,0003.79
2023-05-03 20:18:00,,0826.4,5.01,0.00,30.0,28.0,00.0,38.3,31.5,10.3,0000.0,0016.55,0005.46,0003.77
2023-05-03 20:19:00,,0826.4,5.00,0.00,30.0,28.2,00.0,38.4,31.5,10.4,0000.0,0016.30,0005.39,0003.74
2023-05-03 20:20:00,,0826.4,4.99,0.00,30.0,28.4,00.0,38.4,31.6,10.9,0000.0,0015.86,0005.34,0003.72
2023-05-03 20:21:00,,0826.4,4.99,0.00,30.1,28.5,00.0,38.4,31.6,10.6,0000.0,0015.35,0005.30,0003.69
2023-05-03 20:22:00,,0826.4,5.00,0.00,30.1,28.6,00.0,38.4,31.7,10.2,0000.0,0015.16,0005.29,0003.66
2023-05-03 20:23:00,,0826.3,4.99,0.00,30.1,28.7,00.0,38.4,31.7,10.3,0000.0,0015.09,0005.26,0003.63
2023-05-03 20:24:00,,0826.3,5.00,0.00,30.1,28.8,00.0,38.4,31.8,10.3,0000.0,0014.33,0005.20,0003.60
2023-05-03 20:25:00,,0826.3,5.00,0.00,30.2,28.9,00.0,38.4,31.8,10.4,0000.0,0013.46,0005.17,0003.56
2023-05-03 20:26:00,,0826.3,5.02,0.00,30.2,29.0,00.0,38.5,31.8,10.1,0000.0,0013.21,0005.11,0003.53
2023-05-03 20:27:00,,0826.3,5.00,0.00,30.2,29.0,00.0,38.5,31.9,10.1,0000.0,0012.85,0005.09,0003.52
2023-05-03 20:28:00,,0826.3,5.00,0.00,30.3,29.1,00.0,38.5,31.9,10.3,0000.0,0012.67,0005.20,0003.50
2023-05-03 20:29:00,,0826.3,4.99,0.00,30.3,29.2,00.0,38.5,31.9,10.2,0000.0,0013.33,0005.22,0003.49
2023-05-03 20:30:00,,0826.4,5.00,0.00,30.3,29.2,00.0,38.5,32.0,09.9,0000.0,0013.63,0005.22,0003.47
2023-05-03 20:31:00,,0826.4,4.99,0.00,30.3,28.5,00.0,38.5,31.9,09.9,0000.0,0013.61,0005.23,0003.48
2023-05-03 20:32:00,,0826.3,5.01,0.00,30.3,26.9,00.0,38.4,31.7,09.8,0000.0,0013.15,0005.24,0003.48
2023-05-03 20:33:00,,0826.2,5.01,0.00,30.2,26.6,00.0,38.4,31.6,10.0,0000.0,0013.44,0005.21,0003.48
2023-05-03 20:34:00,,0826.2,5.01,0.00,30.1,26.8,00.0,38.4,31.5,10.2,0000.0,0013.99,0005.24,0003.47
2023-05-03 20:35:00,,0826.2,5.00,0.00,30.1,27.1,00.0,38.4,31.5,09.9,0000.0,0014.48,0005.25,0003.47
2023-05-03 20:36:00,,0826.2,4.99,0.00,30.1,27.4,00.0,38.4,31.5,10.1,0000.0,0014.65,0005.23,0003.47
2023-05-03 20:37:00,,0826.2,5.00,0.00,30.1,27.7,00.0,38.4,31.6,10.2,0000.0,0014.61,0005.29,0003.50
2023-05-03 20:38:00,,0826.2,5.01,0.00,30.1,28.0,00.0,38.5,31.6,10.1,0000.0,0014.42,0005.31,0003.52
2023-05-03 20:39:00,,0826.2,4.99,0.00,30.1,28.2,00.0,38.5,31.7,09.8,0000.0,0014.27,0005.24,0003.53
2023-05-03 20:40:00,,0826.3,4.99,0.00,30.1,28.4,00.0,38.5,31.8,09.8,0000.0,0013.86,0005.23,0003.54
2023-05-03 20:41:00,,0826.2,4.99,0.00,30.2,28.6,00.0,38.5,31.8,09.9,0000.0,0014.14,0005.22,0003.55
2023-05-03 20:42:00,,0826.2,5.01,0.00,30.2,28.7,00.0,38.5,31.8,10.0,0000.0,0014.20,0005.16,0003.54
2023-05-03 20:43:00,,0826.2,5.01,0.00,30.2,28.8,00.0,38.5,31.8,09.8,0000.0,0015.61,0005.14,0003.53
2023-05-03 20:44:00,,0826.2,5.00,0.00,30.2,28.9,00.0,38.5,31.9,09.7,0000.0,0016.27,0005.10,0003.52
2023-05-03 20:45:00,,0826.2,5.00,0.00,30.3,29.0,00.0,38.5,31.9,09.7,0000.0,0015.55,0005.08,0003.51
2023-05-03 20:46:00,,0826.2,4.98,0.00,30.3,28.2,00.0,38.5,31.8,09.7,0000.0,0014.92,0005.09,0003.52
2023-05-03 20:47:00,,0826.1,5.01,0.00,30.2,26.7,00.0,38.4,31.6,09.8,0000.0,0014.65,0005.15,0003.52
2023-05-03 20:48:00,,0826.1,5.01,0.00,30.2,26.5,00.0,38.4,31.5,09.9,0000.0,0014.58,0005.15,0003.51
2023-05-03 20:49:00,,0826.2,4.99,0.00,30.1,26.7,00.0,38.4,31.4,10.3,0000.0,0014.72,0005.10,0003.50
2023-05-03 20:50:00,,0826.2,4.99,0.00,30.1,27.0,00.0,38.4,31.4,09.9,0000.0,0014.88,0005.11,0003.50
2023-05-03 20:51:00,,0826.1,5.01,0.00,30.0,27.4,00.0,38.4,31.4,10.0,0000.0,0015.19,0005.06,0003.49
2023-05-03 20:52:00,,0826.1,4.99,0.00,30.0,27.7,00.0,38.4,31.5,09.6,0000.0,0014.58,0005.04,0003.48
2023-05-03 20:53:00,,0826.0,4.99,0.00,30.1,27.9,00.0,38.4,31.6,09.6,0000.0,0014.48,0005.06,0003.47
2023-05-03 20:54:00,,0826.1,5.01,0.00,30.1,28.2,00.0,38.4,31.6,09.7,0000.0,0013.32,0005.00,0003.48
2023-05-03 20:55:00,,0826.0,5.01,0.00,30.1,28.4,00.0,38.4,31.7,09.5,0000.0,0012.62,0005.02,0003.47
2023-05-03 20:56:00,,0825.9,5.00,0.00,30.1,28.5,00.0,38.4,31.7,09.9,0000.0,0012.42,0004.98,0003.47
2023-05-03 20:57:00,,0825.9,5.00,0.00,30.2,28.7,00.0,38.5,31.7,09.8,0000.0,0012.49,0004.95,0003.46
2023-05-03 20:58:00,,0825.9,5.00,0.00,30.2,28.8,00.0,38.5,31.8,09.6,0000.0,0013.19,0004.94,0003.44
2023-05-03 20:59:00,,0825.9,5.00,0.00,30.2,28.9,00.0,38.5,31.8,09.6,0000.0,0013.42,0004.89,0003.44
